OK,88,32,966,88,2014-10-01T01:40:00,0,28072736,203636
OK,88,32,966,88,2014-10-01T01:45:00,0,28073183,203636
OK,88,32,966,88,2014-10-01T01:50:00,0,28073631,203636
OK,88,32,966,88,2014-10-01T01:55:00,0,28073949,203636
OK,88,32,966,88,2014-10-01T02:00:00,0,28074398,203636
OK,88,32,966,88,2014-10-01T02:05:00,0,28074838,203636
OK,88,32,966,88,2014-10-01T02:10:00,0,28075287,203636
OK,88,32,966,88,2014-10-01T02:15:00,0,28075736,203636
OK,88,32,966,88,2014-10-01T02:20:00,0,28076119,203636
OK,88,32,966,88,2014-10-01T02:25:00,0,28076568,203636
OK,88,32,966,88,2014-10-01T02:30:00,0,28077017,203636
OK,88,32,966,88,2014-10-01T02:35:00,0,28077466,203636
OK,88,32,966,88,2014-10-01T02:40:00,0,28077869,203636
OK,88,32,966,88,2014-10-01T02:45:00,0,28078318,203636
OK,88,32,966,88,2014-10-01T02:50:00,0,28078763,203636
OK,88,32,966,88,2014-10-01T02:55:00,0,28079212,203636
OK,88,32,966,88,2014-10-01T03:00:00,0,28079654,203636
OK,88,32,966,88,2014-10-01T03:05:00,0,28080103,203636
OK,88,32,966,88,2014-10-01T03:10:00,0,28080437,203636
OK,46,61,966,46,2014-10-01T03:15:00,1,28080886,203636
OK,52,54,966,52,2014-10-01T03:20:00,1,28081335,203636
OK,51,55,966,51,2014-10-01T03:25:00,3,28081782,203636
OK,48,58,966,48,2014-10-01T03:30:00,2,28082231,203636
OK,48,58,966,48,2014-10-01T03:35:00,0,28082664,203636
OK,48,58,966,48,2014-10-01T03:40:00,0,28083096,203636
OK,48,58,966,48,2014-10-01T03:45:00,0,28083545,203636
OK,51,55,966,51,2014-10-01T03:50:00,1,28083994,203636
OK,51,55,966,51,2014-10-01T03:55:00,1,28084435,203636
OK,51,55,966,51,2014-10-01T04:00:00,0,28084860,203636
OK,51,55,966,51,2014-10-01T04:05:00,0,28085309,203636
OK,72,39,966,72,2014-10-01T04:10:00,1,28085754,203636
OK,72,39,966,72,2014-10-01T04:15:00,1,28086203,203636
OK,72,39,966,72,2014-10-01T04:20:00,0,28086645,203636
OK,51,55,966,51,2014-10-01T04:25:00,1,28087094,203636
OK,52,54,966,52,2014-10-01T04:30:00,2,28087539,203636
OK,52,54,966,52,2014-10-01T04:35:00,2,28087988,203636
OK,51,55,966,51,2014-10-01T04:40:00,2,28088412,203636
OK,51,55,966,51,2014-10-01T04:45:00,0,28088861,203636
OK,101,27,966,101,2014-10-01T04:50:00,2,28089291,203636
OK,100,28,966,100,2014-10-01T04:55:00,5,28089740,203636
OK,101,27,966,101,2014-10-01T05:00:00,4,28090189,203636
OK,101,27,966,101,2014-10-01T05:05:00,3,28090535,203636
OK,63,44,966,63,2014-10-01T05:10:00,1,28090982,203636
OK,63,44,966,63,2014-10-01T05:15:00,0,28091431,203636
OK,63,44,966,63,2014-10-01T05:20:00,0,28091848,203636
OK,81,34,966,81,2014-10-01T05:25:00,1,28092297,203636
OK,99,28,966,99,2014-10-01T05:30:00,2,28092741,203636
OK,107,26,966,107,2014-10-01T05:35:00,2,28093182,203636
OK,104,27,966,104,2014-10-01T05:40:00,5,28093613,203636
OK,100,28,966,100,2014-10-01T05:45:00,7,28094062,203636
OK,100,28,966,100,2014-10-01T05:50:00,5,28094473,203636
OK,137,20,966,137,2014-10-01T05:55:00,4,28094918,203636
OK,160,17,966,160,2014-10-01T06:00:00,2,28095365,203636
OK,188,15,966,188,2014-10-01T06:05:00,0,28095814,203636
OK,138,20,966,138,2014-10-01T06:10:00,1,28096227,203636
OK,71,39,966,71,2014-10-01T06:15:00,6,28096676,203636
OK,71,39,966,71,2014-10-01T06:20:00,6,28097110,203636
OK,98,28,966,98,2014-10-01T06:25:00,1,28097559,203636
OK,98,28,966,98,2014-10-01T06:30:00,0,28098008,203636
OK,110,25,966,110,2014-10-01T06:35:00,2,28098445,203636
OK,103,27,966,103,2014-10-01T06:40:00,3,28098889,203636
OK,103,27,966,103,2014-10-01T06:45:00,3,28099337,203636
OK,102,27,966,102,2014-10-01T06:50:00,0,28099680,203636
OK,96,29,966,96,2014-10-01T06:55:00,1,28100129,203636
OK,73,38,966,73,2014-10-01T07:00:00,5,28100436,203636
OK,69,40,966,69,2014-10-01T07:05:00,4,28100885,203636
OK,86,32,966,86,2014-10-01T07:10:00,2,28101256,203636
OK,64,44,966,64,2014-10-01T07:15:00,5,28101705,203636
OK,61,46,966,61,2014-10-01T07:20:00,4,28102141,203636
OK,51,55,966,51,2014-10-01T07:25:00,2,28102590,203636
OK,55,51,966,55,2014-10-01T07:30:00,1,28103018,203636
OK,55,51,966,55,2014-10-01T07:35:00,0,28103464,203636
OK,55,51,966,55,2014-10-01T07:40:00,0,28103909,203636
OK,55,51,966,55,2014-10-01T07:45:00,0,28104354,203636
OK,61,46,966,61,2014-10-01T07:50:00,1,28104795,203636
OK,61,46,966,61,2014-10-01T07:55:00,1,28105240,203636
OK,65,43,966,65,2014-10-01T08:00:00,2,28105680,203636
OK,69,40,966,69,2014-10-01T08:05:00,5,28106129,203636
OK,85,33,966,85,2014-10-01T08:10:00,5,28106566,203636
OK,68,41,966,68,2014-10-01T08:15:00,2,28106972,203636
OK,48,58,966,48,2014-10-01T08:20:00,1,28107404,203636
OK,57,49,966,57,2014-10-01T08:25:00,2,28107853,203636
OK,89,31,966,89,2014-10-01T08:30:00,2,28108292,203636
OK,112,25,966,112,2014-10-01T08:35:00,1,28108741,203636
OK,96,29,966,96,2014-10-01T08:40:00,1,28109169,203636
OK,96,29,966,96,2014-10-01T08:45:00,1,28109618,203636
OK,96,29,966,96,2014-10-01T08:50:00,0,28109961,203636
OK,60,47,966,60,2014-10-01T08:55:00,1,28110410,203636
OK,60,47,966,60,2014-10-01T09:00:00,1,28110833,203636
OK,66,42,966,66,2014-10-01T09:05:00,2,28111282,203636
OK,66,42,966,66,2014-10-01T09:10:00,2,28111711,203636
OK,59,47,966,59,2014-10-01T09:15:00,0,28112160,203636
OK,59,47,966,59,2014-10-01T09:20:00,0,28112501,203636
OK,59,47,966,59,2014-10-01T09:25:00,0,28112950,203636
OK,59,47,966,59,2014-10-01T09:30:00,0,28113374,203636
OK,59,47,966,59,2014-10-01T09:35:00,0,28113823,203636
OK,59,47,966,59,2014-10-01T09:40:00,0,28114255,203636
OK,96,29,966,96,2014-10-01T09:45:00,3,28114704,203636
OK,92,30,966,92,2014-10-01T09:50:00,0,28115058,203636
OK,72,39,966,72,2014-10-01T10:00:00,1,28115919,203636
OK,62,45,966,62,2014-10-01T10:05:00,1,28116368,203636
OK,62,45,966,62,2014-10-01T10:10:00,1,28116776,203636
OK,97,29,966,97,2014-10-01T10:15:00,2,28117225,203636
OK,81,34,966,81,2014-10-01T10:20:00,4,28117650,203636
OK,69,40,966,69,2014-10-01T10:25:00,3,28118099,203636
OK,89,31,966,89,2014-10-01T10:30:00,1,28118544,203636
OK,89,31,966,89,2014-10-01T10:35:00,1,28118991,203636
OK,95,29,966,95,2014-10-01T10:40:00,1,28119435,203636
OK,95,29,966,95,2014-10-01T10:45:00,3,28119883,203636
OK,74,38,966,74,2014-10-01T10:50:00,3,28120331,203636
OK,59,47,966,59,2014-10-01T10:55:00,3,28120780,203636
OK,57,49,966,57,2014-10-01T11:00:00,2,28121163,203636
OK,105,26,966,105,2014-10-01T11:05:00,2,28121612,203636
OK,105,26,966,105,2014-10-01T11:10:00,2,28122050,203636
OK,104,27,966,104,2014-10-01T11:15:00,1,28122499,203636
OK,104,27,966,104,2014-10-01T11:20:00,1,28122940,203636
OK,52,54,966,52,2014-10-01T11:25:00,1,28123389,203636
OK,61,46,966,61,2014-10-01T11:30:00,2,28123821,203636
OK,69,40,966,69,2014-10-01T11:35:00,2,28124270,203636
OK,66,42,966,66,2014-10-01T11:40:00,4,28124672,203636
OK,68,41,966,68,2014-10-01T11:45:00,4,28125121,203636
OK,70,40,966,70,2014-10-01T11:50:00,1,28125550,203636
OK,97,29,966,97,2014-10-01T11:55:00,1,28125999,203636
OK,97,29,966,97,2014-10-01T12:00:00,1,28126351,203636
OK,90,31,966,90,2014-10-01T12:05:00,3,28126800,203636
OK,90,31,966,90,2014-10-01T12:10:00,3,28127249,203636
OK,66,42,966,66,2014-10-01T12:15:00,1,28127698,203636
OK,95,29,966,95,2014-10-01T12:20:00,2,28128126,203636
OK,99,28,966,99,2014-10-01T12:25:00,4,28128575,203636
OK,92,30,966,92,2014-10-01T12:30:00,3,28129010,203636
OK,79,35,966,79,2014-10-01T12:35:00,0,28129459,203636
OK,81,34,966,81,2014-10-01T12:40:00,3,28129893,203636
OK,93,30,966,93,2014-10-01T12:45:00,4,28130342,203636
OK,117,24,966,117,2014-10-01T12:50:00,3,28130770,203636
OK,61,46,966,61,2014-10-01T12:55:00,1,28131219,203636
OK,107,26,966,107,2014-10-01T13:00:00,2,28131656,203636
OK,107,26,966,107,2014-10-01T13:05:00,2,28132105,203636
OK,120,23,966,120,2014-10-01T13:10:00,0,28132543,203636
OK,158,17,966,158,2014-10-01T13:15:00,1,28132990,203636
OK,115,24,966,115,2014-10-01T13:20:00,4,28133428,203636
OK,97,29,966,97,2014-10-01T13:25:00,3,28133877,203636
OK,125,22,966,125,2014-10-01T13:30:00,2,28134316,203636
OK,98,28,966,98,2014-10-01T13:35:00,5,28134765,203636
OK,89,31,966,89,2014-10-01T13:40:00,3,28135184,203636
OK,89,31,966,89,2014-10-01T13:45:00,0,28135633,203636
OK,114,24,966,114,2014-10-01T13:50:00,4,28136070,203636
OK,114,24,966,114,2014-10-01T13:55:00,4,28136519,203636
OK,70,40,966,70,2014-10-01T14:00:00,1,28136959,203636
OK,105,26,966,105,2014-10-01T14:05:00,3,28137408,203636
OK,105,26,966,105,2014-10-01T14:10:00,5,28137842,203636
OK,107,26,966,107,2014-10-01T14:15:00,5,28138291,203636
OK,108,26,966,108,2014-10-01T14:20:00,3,28138719,203636
OK,78,36,966,78,2014-10-01T14:25:00,1,28139168,203636
OK,80,35,966,80,2014-10-01T14:30:00,3,28139579,203636
OK,98,28,966,98,2014-10-01T14:35:00,4,28140028,203636
OK,117,24,966,117,2014-10-01T14:40:00,1,28140470,203636
OK,126,22,966,126,2014-10-01T14:45:00,1,28140919,203636
OK,129,21,966,129,2014-10-01T14:50:00,2,28141345,203636
OK,132,21,966,132,2014-10-01T14:55:00,1,28141794,203636
OK,130,21,966,130,2014-10-01T15:00:00,2,28142222,203636
OK,130,21,966,130,2014-10-01T15:05:00,2,28142671,203636
OK,166,17,966,166,2014-10-01T15:10:00,0,28143098,203636
OK,61,46,966,61,2014-10-01T15:15:00,2,28143547,203636
OK,61,46,966,61,2014-10-01T15:20:00,2,28143995,203636
OK,105,26,966,105,2014-10-01T15:25:00,3,28144444,203636
OK,105,26,966,105,2014-10-01T15:30:00,3,28144865,203636
OK,82,34,966,82,2014-10-01T15:35:00,0,28145279,203636
OK,37,76,966,37,2014-10-01T15:40:00,1,28145728,203636
OK,46,61,966,46,2014-10-01T15:45:00,2,28146177,203636
OK,56,50,966,56,2014-10-01T15:50:00,1,28146626,203636
OK,56,50,966,56,2014-10-01T15:55:00,0,28147034,203636
OK,56,50,966,56,2014-10-01T16:00:00,0,28147478,203636
OK,56,50,966,56,2014-10-01T16:05:00,0,28147927,203636
OK,74,38,966,74,2014-10-01T16:10:00,2,28148328,203636
OK,81,34,966,81,2014-10-01T16:15:00,4,28148777,203636
OK,78,36,966,78,2014-10-01T16:20:00,3,28149216,203636
OK,78,36,966,78,2014-10-01T16:25:00,1,28149665,203636
OK,78,36,966,78,2014-10-01T16:30:00,0,28150091,203636
OK,78,36,966,78,2014-10-01T16:35:00,0,28150540,203636
OK,48,58,966,48,2014-10-01T16:40:00,1,28150958,203636
OK,91,31,966,91,2014-10-01T16:45:00,1,28151407,203636
OK,91,31,966,91,2014-10-01T16:50:00,1,28151856,203636
OK,85,33,966,85,2014-10-01T17:00:00,1,28152305,203636
OK,85,33,966,85,2014-10-01T17:05:00,0,28152751,203636
OK,93,30,966,93,2014-10-01T17:10:00,1,28153198,203636
OK,58,48,966,58,2014-10-01T17:15:00,3,28153647,203636
OK,56,50,966,56,2014-10-01T17:20:00,3,28154057,203636
OK,72,39,966,72,2014-10-01T17:25:00,2,28154506,203636
OK,85,33,966,85,2014-10-01T17:30:00,3,28154948,203636
OK,81,34,966,81,2014-10-01T17:35:00,2,28155396,203636
OK,77,36,966,77,2014-10-01T17:40:00,0,28155814,203636
OK,84,33,966,84,2014-10-01T17:45:00,1,28156263,203636
OK,84,33,966,84,2014-10-01T17:50:00,0,28156712,203636
OK,84,33,966,84,2014-10-01T17:55:00,0,28157150,203636
OK,84,33,966,84,2014-10-01T18:00:00,0,28157580,203636
OK,62,45,966,62,2014-10-01T18:05:00,1,28158028,203636
OK,62,45,966,62,2014-10-01T18:10:00,1,28158472,203636
OK,62,45,966,62,2014-10-01T18:15:00,0,28158918,203636
OK,62,45,966,62,2014-10-01T18:20:00,0,28159364,203636
OK,84,33,966,84,2014-10-01T18:25:00,1,28159699,203636
OK,84,33,966,84,2014-10-01T18:30:00,1,28160148,203636
OK,84,33,966,84,2014-10-01T18:35:00,0,28160597,203636
OK,76,37,966,76,2014-10-01T18:40:00,1,28161035,203636
OK,76,37,966,76,2014-10-01T18:45:00,1,28161484,203636
OK,76,37,966,76,2014-10-01T18:50:00,0,28161901,203636
OK,76,37,966,76,2014-10-01T18:55:00,0,28162350,203636
OK,76,37,966,76,2014-10-01T19:00:00,0,28162744,203636
OK,76,37,966,76,2014-10-01T19:05:00,0,28163183,203636
OK,45,62,966,45,2014-10-01T19:10:00,1,28163631,203636
OK,44,64,966,44,2014-10-01T19:15:00,1,28164080,203636
OK,47,60,966,47,2014-10-01T19:20:00,1,28164511,203636
OK,47,60,966,47,2014-10-01T19:25:00,0,28164960,203636
OK,73,38,966,73,2014-10-01T19:30:00,1,28165385,203636
OK,73,38,966,73,2014-10-01T19:35:00,1,28165833,203636
OK,73,38,966,73,2014-10-01T19:40:00,0,28166274,203636
OK,66,42,966,66,2014-10-01T19:45:00,2,28166636,203636
OK,61,46,966,61,2014-10-01T19:50:00,3,28167085,203636
OK,58,48,966,58,2014-10-01T19:55:00,1,28167514,203636
OK,58,48,966,58,2014-10-01T20:00:00,0,28167947,203636
OK,58,48,966,58,2014-10-01T20:05:00,0,28168396,203636
OK,82,34,966,82,2014-10-01T20:10:00,1,28168841,203636
OK,82,34,966,82,2014-10-01T20:15:00,0,28169290,203636
OK,82,34,966,82,2014-10-01T20:20:00,0,28169738,203636
OK,82,34,966,82,2014-10-01T20:25:00,0,28170164,203636
OK,67,42,966,67,2014-10-01T20:30:00,3,28170609,203636
OK,82,34,966,82,2014-10-01T20:35:00,0,28171057,203636
OK,82,34,966,82,2014-10-01T20:40:00,0,28171494,203636
OK,82,34,966,82,2014-10-01T20:45:00,0,28171940,203636
OK,82,34,966,82,2014-10-01T20:50:00,0,28172388,203636
OK,82,34,966,82,2014-10-01T20:55:00,0,28172834,203636
OK,82,34,966,82,2014-10-01T21:00:00,0,28173280,203636
OK,82,34,966,82,2014-10-01T21:05:00,0,28173729,203636
OK,82,34,966,82,2014-10-01T21:10:00,0,28174170,203636
OK,82,34,966,82,2014-10-01T21:15:00,0,28174619,203636
OK,82,34,966,82,2014-10-01T21:20:00,0,28175045,203636
OK,82,34,966,82,2014-10-01T21:25:00,0,28175441,203636
OK,82,34,966,82,2014-10-01T21:30:00,0,28175890,203636
OK,82,34,966,82,2014-10-01T21:35:00,0,28176339,203636
OK,82,34,966,82,2014-10-01T21:40:00,0,28176788,203636
OK,82,34,966,82,2014-10-01T21:45:00,0,28177144,203636
OK,82,34,966,82,2014-10-01T21:50:00,0,28177584,203636
OK,82,34,966,82,2014-10-01T21:55:00,0,28178030,203636
OK,82,34,966,82,2014-10-01T22:00:00,0,28178479,203636
OK,82,34,966,82,2014-10-01T22:05:00,0,28178926,203636
OK,82,34,966,82,2014-10-01T22:10:00,0,28179360,203636
OK,82,34,966,82,2014-10-01T22:15:00,0,28179803,203636
OK,82,34,966,82,2014-10-01T22:20:00,0,28180250,203636
OK,82,34,966,82,2014-10-01T22:25:00,0,28180648,203636
OK,82,34,966,82,2014-10-01T22:30:00,0,28181097,203636
OK,82,34,966,82,2014-10-01T22:35:00,0,28181521,203636
OK,82,34,966,82,2014-10-01T22:40:00,0,28181969,203636
OK,82,34,966,82,2014-10-01T22:45:00,0,28182416,203636
OK,82,34,966,82,2014-10-01T22:50:00,0,28182865,203636
OK,82,34,966,82,2014-10-01T22:55:00,0,28183282,203636
OK,82,34,966,82,2014-10-01T23:00:00,0,28183715,203636
OK,82,34,966,82,2014-10-01T23:05:00,0,28184160,203636
OK,82,34,966,82,2014-10-01T23:10:00,0,28184609,203636
OK,82,34,966,82,2014-10-01T23:15:00,0,28185044,203636
OK,82,34,966,82,2014-10-01T23:20:00,0,28185492,203636
OK,82,34,966,82,2014-10-01T23:25:00,0,28185923,203636
OK,82,34,966,82,2014-10-01T23:30:00,0,28186315,203636
OK,82,34,966,82,2014-10-01T23:40:00,0,28187162,203636
OK,82,34,966,82,2014-10-01T23:55:00,0,28188494,203636
OK,82,34,966,82,2014-10-02T00:05:00,0,28189379,203636
OK,82,34,966,82,2014-10-02T00:10:00,0,28189801,203636
OK,82,34,966,82,2014-10-02T00:15:00,0,28190250,203636
OK,82,34,966,82,2014-10-02T00:20:00,0,28190603,203636
OK,82,34,966,82,2014-10-02T00:30:00,0,28191501,203636
OK,82,34,966,82,2014-10-02T00:35:00,0,28191807,203636
OK,82,34,966,82,2014-10-02T00:40:00,0,28192256,203636
OK,82,34,966,82,2014-10-02T00:45:00,0,28192689,203636
OK,82,34,966,82,2014-10-02T00:50:00,0,28193133,203636
OK,82,34,966,82,2014-10-02T00:55:00,0,28193500,203636
OK,52,54,966,52,2014-10-02T01:05:00,0,28194398,203636
OK,52,54,966,52,2014-10-02T01:10:00,0,28194847,203636
OK,52,54,966,52,2014-10-02T01:15:00,0,28195084,203636
OK,52,54,966,52,2014-10-02T01:25:00,0,28195981,203636
OK,52,54,966,52,2014-10-02T01:30:00,0,28196268,203636
OK,52,54,966,52,2014-10-02T01:35:00,0,28196714,203636
OK,52,54,966,52,2014-10-02T01:40:00,0,28197137,203636
OK,52,54,966,52,2014-10-02T01:45:00,0,28197586,203636
OK,52,54,966,52,2014-10-02T01:50:00,0,28198034,203636
OK,52,54,966,52,2014-10-02T01:55:00,0,28198482,203636
OK,52,54,966,52,2014-10-02T02:00:00,0,28198931,203636
OK,52,54,966,52,2014-10-02T02:05:00,0,28199303,203636
OK,52,54,966,52,2014-10-02T02:10:00,0,28199745,203636
OK,52,54,966,52,2014-10-02T02:15:00,0,28200187,203636
OK,52,54,966,52,2014-10-02T02:20:00,0,28200630,203636
OK,52,54,966,52,2014-10-02T02:25:00,0,28201079,203636
OK,52,54,966,52,2014-10-02T02:30:00,0,28201510,203636
OK,52,54,966,52,2014-10-02T02:45:00,0,28202408,203636
OK,52,54,966,52,2014-10-02T02:50:00,0,28202850,203636
OK,52,54,966,52,2014-10-02T02:55:00,0,28203298,203636
OK,52,54,966,52,2014-10-02T03:00:00,0,28203733,203636
OK,52,54,966,52,2014-10-02T03:10:00,0,28204182,203636
OK,52,54,966,52,2014-10-02T03:25:00,0,28204631,203636
OK,52,54,966,52,2014-10-02T03:30:00,0,28205080,203636
OK,52,54,966,52,2014-10-02T03:35:00,0,28205508,203636
OK,52,54,966,52,2014-10-02T03:40:00,0,28205955,203636
OK,52,54,966,52,2014-10-02T03:45:00,0,28206338,203636
OK,52,54,966,52,2014-10-02T03:55:00,0,28207236,203636
OK,82,34,966,82,2014-10-02T04:00:00,1,28207656,203636
OK,82,34,966,82,2014-10-02T04:05:00,1,28208104,203636
OK,82,34,966,82,2014-10-02T04:10:00,0,28208531,203636
OK,82,34,966,82,2014-10-02T04:15:00,0,28208980,203636
OK,81,34,966,81,2014-10-02T04:20:00,1,28209418,203636
OK,81,34,966,81,2014-10-02T04:25:00,0,28209867,203636
OK,66,42,966,66,2014-10-02T04:30:00,2,28210290,203636
OK,66,42,966,66,2014-10-02T04:35:00,2,28210739,203636
OK,86,32,966,86,2014-10-02T04:40:00,0,28211164,203636
OK,86,32,966,86,2014-10-02T04:45:00,0,28211608,203636
OK,86,32,966,86,2014-10-02T04:50:00,0,28211986,203636
OK,92,30,966,92,2014-10-02T04:55:00,5,28212435,203636
OK,98,28,966,98,2014-10-02T05:00:00,1,28212864,203636
OK,98,28,966,98,2014-10-02T05:05:00,0,28213313,203636
OK,98,28,966,98,2014-10-02T05:10:00,0,28213751,203636
OK,104,27,966,104,2014-10-02T05:15:00,1,28214200,203636
OK,104,27,966,104,2014-10-02T05:20:00,1,28214613,203636
OK,82,34,966,82,2014-10-02T05:25:00,6,28215062,203636
OK,63,44,966,63,2014-10-02T05:30:00,1,28215478,203636
OK,63,44,966,63,2014-10-02T05:35:00,0,28215927,203636
OK,78,36,966,78,2014-10-02T05:40:00,3,28216267,203636
OK,78,36,966,78,2014-10-02T05:45:00,1,28216706,203636
OK,78,36,966,78,2014-10-02T05:50:00,0,28217153,203636
OK,130,21,966,130,2014-10-02T05:55:00,5,28217602,203636
OK,186,15,966,186,2014-10-02T06:00:00,2,28218041,203636
OK,233,12,966,233,2014-10-02T06:05:00,2,28218490,203636
OK,255,11,966,255,2014-10-02T06:10:00,0,28218910,203636
OK,85,33,966,85,2014-10-02T06:15:00,4,28219359,203636
OK,110,25,966,110,2014-10-02T06:20:00,6,28219732,203636
OK,137,20,966,137,2014-10-02T06:25:00,4,28220181,203636
OK,114,24,966,114,2014-10-02T06:30:00,2,28220615,203636
OK,126,22,966,126,2014-10-02T06:35:00,1,28221064,203636
OK,81,34,966,81,2014-10-02T06:40:00,5,28221445,203636
OK,81,34,966,81,2014-10-02T06:45:00,3,28221731,203636
OK,53,53,966,53,2014-10-02T07:00:00,3,28222325,203636
OK,53,53,966,53,2014-10-02T07:05:00,3,28222774,203636
OK,67,42,966,67,2014-10-02T07:10:00,1,28223205,203636
OK,67,42,966,67,2014-10-02T07:15:00,0,28223640,203636
OK,67,42,966,67,2014-10-02T07:20:00,0,28224088,203636
OK,80,35,966,80,2014-10-02T07:25:00,3,28224443,203636
OK,66,42,966,66,2014-10-02T07:30:00,1,28224892,203636
OK,52,54,966,52,2014-10-02T07:35:00,1,28225341,203636
OK,52,54,966,52,2014-10-02T07:40:00,1,28225663,203636
OK,52,54,966,52,2014-10-02T07:50:00,0,28226553,203636
OK,52,54,966,52,2014-10-02T07:55:00,0,28227002,203636
OK,52,54,966,52,2014-10-02T08:00:00,0,28227417,203636
OK,83,34,966,83,2014-10-02T08:05:00,1,28227866,203636
OK,83,34,966,83,2014-10-02T08:10:00,0,28228225,203636
OK,77,36,966,77,2014-10-02T08:20:00,0,28229084,203636
OK,121,23,966,121,2014-10-02T08:25:00,1,28229533,203636
OK,121,23,966,121,2014-10-02T08:30:00,1,28229883,203636
OK,65,43,966,65,2014-10-02T08:35:00,2,28230332,203636
OK,65,43,966,65,2014-10-02T08:40:00,0,28230698,203636
OK,65,43,966,65,2014-10-02T08:45:00,0,28231147,203636
OK,65,43,966,65,2014-10-02T08:50:00,0,28231570,203636
OK,65,43,966,65,2014-10-02T08:55:00,0,28232019,203636
OK,70,40,966,70,2014-10-02T09:00:00,3,28232361,203636
OK,70,40,966,70,2014-10-02T09:10:00,0,28232810,203636
OK,94,30,966,94,2014-10-02T09:15:00,1,28233259,203636
OK,94,30,966,94,2014-10-02T09:20:00,0,28233683,203636
OK,93,30,966,93,2014-10-02T09:25:00,4,28234132,203636
OK,85,33,966,85,2014-10-02T09:30:00,2,28234465,203636
OK,90,31,966,90,2014-10-02T09:40:00,0,28235341,203636
OK,90,31,966,90,2014-10-02T09:45:00,0,28235790,203636
OK,90,31,966,90,2014-10-02T09:50:00,0,28236233,203636
OK,77,36,966,77,2014-10-02T09:55:00,3,28236680,203636
OK,77,36,966,77,2014-10-02T10:00:00,0,28237083,203636
OK,77,36,966,77,2014-10-02T10:05:00,0,28237531,203636
OK,83,34,966,83,2014-10-02T10:10:00,2,28237979,203636
OK,77,36,966,77,2014-10-02T10:15:00,4,28238426,203636
OK,60,47,966,60,2014-10-02T10:20:00,4,28238867,203636
OK,63,44,966,63,2014-10-02T10:25:00,5,28239316,203636
OK,64,44,966,64,2014-10-02T10:30:00,2,28239746,203636
OK,63,44,966,63,2014-10-02T10:35:00,1,28240195,203636
OK,88,32,966,88,2014-10-02T10:40:00,2,28240639,203636
OK,88,32,966,88,2014-10-02T10:45:00,2,28241088,203636
OK,89,31,966,89,2014-10-02T10:50:00,0,28241520,203636
OK,85,33,966,85,2014-10-02T10:55:00,2,28241968,203636
OK,85,33,966,85,2014-10-02T11:00:00,0,28242364,203636
OK,85,33,966,85,2014-10-02T11:05:00,0,28242813,203636
OK,66,42,966,66,2014-10-02T11:10:00,2,28243262,203636
OK,53,53,966,53,2014-10-02T11:15:00,1,28243590,203636
OK,87,32,966,87,2014-10-02T11:20:00,8,28244025,203636
OK,59,47,966,59,2014-10-02T11:25:00,3,28244454,203636
OK,59,47,966,59,2014-10-02T11:30:00,0,28244903,203636
OK,53,53,966,53,2014-10-02T11:35:00,1,28245352,203636
OK,53,53,966,53,2014-10-02T11:40:00,1,28245758,203636
OK,53,53,966,53,2014-10-02T11:45:00,0,28246207,203636
OK,53,53,966,53,2014-10-02T11:50:00,2,28246644,203636
OK,53,53,966,53,2014-10-02T11:55:00,1,28247093,203636
OK,53,53,966,53,2014-10-02T12:00:00,0,28247539,203636
OK,1225,2,966,1225,2014-10-02T12:05:00,0,28247969,203636
OK,1225,2,966,1225,2014-10-02T12:10:00,0,28248418,203636
OK,91,31,966,91,2014-10-02T12:15:00,3,28248865,203636
OK,91,31,966,91,2014-10-02T12:20:00,0,28249293,203636
OK,73,38,966,73,2014-10-02T12:25:00,3,28249737,203636
OK,52,54,966,52,2014-10-02T12:30:00,0,28250156,203636
OK,111,25,966,111,2014-10-02T12:35:00,2,28250554,203636
OK,148,19,966,148,2014-10-02T13:20:00,8,28251879,203636
OK,143,19,966,143,2014-10-02T13:30:00,0,28252463,203636
OK,143,19,966,143,2014-10-02T13:35:00,0,28252905,203636
OK,143,19,966,143,2014-10-02T13:40:00,0,28253322,203636
OK,87,32,966,87,2014-10-02T13:45:00,5,28253771,203636
OK,83,34,966,83,2014-10-02T13:50:00,3,28254176,203636
OK,97,29,966,97,2014-10-02T13:55:00,4,28254497,203636
OK,81,34,966,81,2014-10-02T14:10:00,0,28255074,203636
OK,112,25,966,112,2014-10-02T14:15:00,4,28255523,203636
OK,134,21,966,134,2014-10-02T14:20:00,2,28255951,203636
OK,126,22,966,126,2014-10-02T14:25:00,0,28256400,203636
OK,165,17,966,165,2014-10-02T14:30:00,4,28256828,203636
OK,67,42,966,67,2014-10-02T14:35:00,3,28257277,203636
OK,66,42,966,66,2014-10-02T14:40:00,0,28257718,203636
OK,135,20,966,135,2014-10-02T14:45:00,6,28258166,203636
OK,94,30,966,94,2014-10-02T14:50:00,3,28258599,203636
OK,140,20,966,140,2014-10-02T14:55:00,1,28259045,203636
OK,80,35,966,80,2014-10-02T15:00:00,1,28259494,203636
OK,115,24,966,115,2014-10-02T15:05:00,4,28259941,203636
OK,115,24,966,115,2014-10-02T15:10:00,4,28260374,203636
OK,115,24,966,115,2014-10-02T15:15:00,0,28260823,203636
OK,115,24,966,115,2014-10-02T15:20:00,0,28261263,203636
OK,95,29,966,95,2014-10-02T15:25:00,2,28261645,203636
OK,100,28,966,100,2014-10-02T15:30:00,0,28262075,203636
OK,63,44,966,63,2014-10-02T15:40:00,0,28262968,203636
OK,77,36,966,77,2014-10-02T15:45:00,1,28263406,203636
OK,77,36,966,77,2014-10-02T15:50:00,0,28263847,203636
OK,77,36,966,77,2014-10-02T15:55:00,0,28264249,203636
OK,81,34,966,81,2014-10-02T16:00:00,2,28264698,203636
OK,67,42,966,67,2014-10-02T16:05:00,4,28265136,203636
OK,68,41,966,68,2014-10-02T16:10:00,3,28265576,203636
OK,67,42,966,67,2014-10-02T16:15:00,0,28265972,203636
OK,67,42,966,67,2014-10-02T16:20:00,0,28266421,203636
OK,67,42,966,67,2014-10-02T16:25:00,0,28266870,203636